SMAP                    
1 40376U 15003A   19265.46472073  .00000022  00000-0  13372-4 0  9999
2 40376  98.1244 270.9699 0002003  85.0867 275.0569 14.63384083247884
FIREBIRD 3              
1 40377U 15003B   19265.47081470  .00001188  00000-0  50275-4 0  9995
2 40377  99.1197 265.3705 0127313 131.0631 230.1682 15.19029191256462
FIREBIRD 4              
1 40378U 15003C   19265.45749177  .00001215  00000-0  51246-4 0  9999
2 40378  99.1200 265.4363 0127515 130.9917 230.2426 15.19038414256463
GRIFEX                  
1 40379U 15003D   19265.46128940  .00000681  00000-0  33204-4 0  9990
2 40379  99.1207 258.9166 0135344 150.9354 209.9495 15.15658187256094
EXOCUBE (CP10)          
1 40380U 15003E   19264.97475641  .00000509  00000-0  27225-4 0  9995
2 40380  99.1238 254.7760 0140052 164.3470 196.2154 15.13662524255787